Regional Weather Roundup
Issued by NWS

Home | Current Version | Previous Version | Text Only | Print | Product List | Glossary On
Versions: 1 2 3 4 5 6 7 8 9 10 11 12 13 14 15 16 17 18 19 20 21 22 23 24 25 26 27 28 29 30 31 32 33 34 35 36 37 38 39 40 41 42 43 44 45 46 47 48 49 50
000
ASUS43 KMKX 310421
RWRWI

WISCONSIN REGIONAL WEATHER ROUNDUP
NATIONAL WEATHER SERVICE MILWAUKEE/SULLIVAN WI
1100 PM CDT SAT JUL 30 2016

NOTE: "FAIR" INDICATES FEW OR NO CLOUDS BELOW 12,000 FEET WITH NO
SIGNIFICANT WEATHER AND/OR OBSTRUCTIONS TO VISIBILITY.

WIZ001-002-006>008-014>016-023>028-310500-
NORTHWEST WISCONSIN

CITY           SKY/WX    TMP DP  RH WIND       PRES   REMARKS
SUPERIOR ARPT  CLOUDY    64  64  97 NE6       30.03R
ASHLAND        CLEAR     60  59  96 CALM      30.04S
HAYWARD        CLEAR     60  58  92 NE3       30.04R
SIREN          CLEAR     66  63  88 CALM      30.02
CUMBERLAND     CLEAR     64  59  82 SE5       30.03S
RICE LAKE      CLEAR     65  61  86 SE3       30.04S
CHETEK         CLEAR     67  64  88 MISG      30.03S
LADYSMITH      PTCLDY    67  61  83 E5        30.07R
EAU CLAIRE     CLEAR     68  63  84 S5        30.02R
MENOMONIE      CLEAR     67  61  83 CALM      30.02S
NEW RICHMOND   CLEAR     66  63  87 CALM      30.02R
OSCEOLA        CLEAR     65  65 100 CALM      30.03S
$$

WIZ003>005-009-010-017-018-310500-
NORTH CENTRAL WISCONSIN

CITY           SKY/WX    TMP DP  RH WIND       PRES   REMARKS
MANITOWISH WTR CLEAR     62  58  89 SE5       30.08R
ARBOR VITAE    CLEAR     65  55  70 SE5       30.09R
WOODRUFF       CLEAR     65  55  70 SE5       30.09R
RHINELANDER    CLEAR     62  54  74 CALM      30.10S
EAGLE RIVER    CLEAR     58  52  79 SE3       30.09S
LAND O LAKES   CLEAR     56  54  93 CALM      30.11R
PHILLIPS       PTCLDY    65  59  80 SE5       30.07R
TOMAHAWK       CLEAR     57  54  88 CALM      30.09S
MEDFORD        CLEAR     62  57  84 CALM      30.08R
MERRILL        CLEAR     58  57  95 NE3       30.09S
$$

WIZ029-030-035-036-043>047-310500-
CENTRAL WISCONSIN

CITY           SKY/WX    TMP DP  RH WIND       PRES   REMARKS
WAUSAU         CLEAR     61  54  77 E6        30.06S
MOSINEE        MOCLDY    61  54  77 E8        30.08S
MARSHFIELD     PTCLDY    65  56  72 SE3       30.06S
STEVENS POINT  CLOUDY    59  55  87 E3        30.07S
WAUPACA        CLEAR     61  60  95 CALM      30.06S
WAUTOMA        CLEAR     63  58  83 CALM      30.06S
WISC RAPIDS    PTCLDY    64  53  67 E5        30.07S
CAMP DOUGLAS   CLEAR     61  60  97 E1        30.05R
$$

WIZ011>013-019>022-031-037>040-048>050-310500-
NORTHEAST WISCONSIN

CITY           SKY/WX    TMP DP  RH WIND       PRES   REMARKS
ANTIGO         CLEAR     55  55  97 CALM      30.10R
SHAWANO        CLEAR     62  56  80 CALM      30.07S
OCONTO         CLEAR    N/A N/A N/A CALM      30.05S
STURGEON BAY   CLEAR     67  58  72 NE5       30.06S
GREEN BAY      CLEAR     59  59 100 NW5       30.06R
MANITOWOC      CLEAR     62  58  86 NW3       30.05R
APPLETON       CLEAR     63  52  67 N3        30.04F
CLINTONVILLE   CLEAR     59  54  82 CALM      30.06S
OSHKOSH        CLEAR     68  54  60 NE3       30.05S
$$

WIZ032>034-041-042-053>061-310500-
SOUTHWEST WISCONSIN

CITY           SKY/WX    TMP DP  RH WIND       PRES   REMARKS
LA CROSSE      CLEAR     71  65  81 E6        30.01R
SPARTA         CLEAR     64  63  95 CALM      30.05R
VIROQUA        CLEAR     65  62  89 E5        30.05S
BOSCOBEL       CLEAR     65  64  97 CALM      30.02S
PRAIRIE DU CHI   N/A     66  64  91 E3        30.01S
PLATTEVILLE    CLEAR     67  64  91 E6        30.04R
$$

WIZ056-057-062-063-064-067-068-310500-
SOUTH CENTRAL WISCONSIN

CITY           SKY/WX    TMP DP  RH WIND       PRES   REMARKS
REEDSBURG      CLEAR     64  61  91 CALM      30.04S
BARABOO/DELLS  CLEAR     61  58  90 CALM      30.05S
LONE ROCK      CLEAR     65  61  87 CALM      30.04R
MINERAL POINT  CLEAR     66  61  82 NE5       30.04S
MADISON        MOCLDY    64  57  78 CALM      30.04R
MIDDLETON      CLEAR     63  59  89 CALM      30.05S
WATERTOWN      CLEAR     61  59  92 CALM      30.04S
MONROE         CLEAR     64  59  82 E5        30.05R
JANESVILLE     CLEAR     64  61  88 E3        30.03R
$$

WIZ051-052-058>065-066-070>072-310500-
SOUTHEAST WISCONSIN

CITY           SKY/WX    TMP DP  RH WIND       PRES   REMARKS
MILWAUKEE      CLEAR     68  63  84 N7        30.02S
WAUKESHA       CLEAR     63  57  82 CALM      30.05S
MILWAUKEE/TIMM CLEAR     64  59  82 N3        30.04S
RACINE         CLEAR     67  63  87 N3        30.04S
BURLINGTON     CLEAR     59  57  94 CALM      30.03S
KENOSHA        CLEAR     65  62  90 N5        30.03R
FOND DU LAC    CLEAR     61  57  87 CALM      30.05S
SHEBOYGAN      CLEAR     61  57  87 N3        30.04S
WEST BEND      CLEAR     61  55  82 CALM      30.04F
JUNEAU         CLEAR     63  56  76 CALM      30.06S
$$

LSZ147-162-310500-
LAKE SUPERIOR

STATION/POSITION TIME  TEMP    WIND        PRES    WAVE
                       AIR SEA DIR/SP/G            HT/PER
                 (UTC) (F)     (DEG/KT/KT) (MB)    (FT/S)
W MID LAKE BUOY  0350   65 62  110/ 10/ 10 1016.5S   0
DEVILS ISLAND    0400   67      40/  6/  6 1016.9R
PORT WING        0300   62     170/  2/  3 1016.6
SAXON HARBOR     0300   64     190/  4/  4 1016.6R
$$

LMZ867-665-643>646-310500-
LAKE MICHIGAN

STATION/POSITION TIME  TEMP    WIND        PRES    WAVE
                       AIR SEA DIR/SP/G            HT/PER
                 (UTC) (F)     (DEG/KT/KT) (MB)    (FT/S)
CHAMBERS ISLAND  0300   72      40/  8/  9 1017.6R
S GREEN BAY BUOY 0400   71 71   50/  8/ 10 1017.0S
N MID LAKE BUOY  0350   71 70  100/ 12/ 16 1016.7F   2/ 3
NORTHPORT PIER   0300   71      40/  4/  5 1017.6R
SISTER BAY       0321   66        CALM       N/A
ALGOMA LAKESHORE 0313           30/  6/  7   N/A
KEWAUNEE LAKESHO 0318                      1016.7R
SHEBOYGAN LAKESH 0400   67     340/  8/  9 1017.2S
PORT WASHINGTON  0340   67     330/  4/  7 1017.6R
ATWATER BUOY     0400   67 66  350/  8/ 10 1018.3S
MILWAUKEE LAKESH 0310   68     360/  6/  7   N/A
S MID LAKE BUOY  0350   71 73   90/ 10/ 12 1015.5R   1/ 4
KENOSHA   LAKESH 0400   70     340/  6/  7 1016.3R
$$

TC  - TEMPERATURE IN CELSIUS
VSB - VISIBILITY IN STATUTE MILES
WCI - WIND CHILL INDEX
HX  - HEAT INDEX




USA.gov is the U.S. government's official web portal to all federal, state and local government web resources and services.